Retour au catalogue

STARLINK-30297

ActifCommunicationsVLEO
NORAD 57682·PAYLOAD·🇺🇸 United States

Lancé Aug 22, 2023 depuis Vandenberg Space Force Base

Loading…

Prochains Passages (prochaines 24 heures)

TLE

FraisSource: CelesTrak SupGP

Époque: Sep 15, 2026, 03:17 UTC

1 57682C 23124V   26258.13729167 -.00009478  00000+0 -28015-3 0  2585
2 57682  53.1606  46.4290 0001179  89.4084 128.5335 15.34382101    13

Suivez STARLINK-30297 en temps réel avec AllMySat

Download on the App Store